Franklin, PA

5:41 AM EST on December 10, 2019 (GMT -0500)
Venango Regional

Weather History for KFKL - October, 2019

Change the Weather History Date:

Saturday, October 5, 2019

  Actual Average Record
Temperature  
Mean Temperature 49 °F -  
Max Temperature 61 °F 66 °F 85 °F (1926)
Min Temperature 37 °F 43 °F 27 °F (1974)
Degree Days  
Heating Degree Days 16    
Moisture  
Dew Point 40 °F    
Average Humidity 75    
Maximum Humidity 93    
Minimum Humidity 56    
Precipitation  
Precipitation 0.00 in - - ()
Sea Level Pressure  
Sea Level Pressure 30.28 in    
Wind  
Wind Speed 10 mph (ESE)    
Max Wind Speed 16 mph    
Max Gust Speed 23 mph    
Visibility 10 miles    
Events      
Averages and records for this station are not official NWS values.
T = Trace of Precipitation, MM = Missing Value Source: NWS Daily Summary

Daily Weather History Graph

Daily Weather History Graph

Search for Another Location

Airport or City:

Astronomy

Oct. 05, 2019 Rise Set
Actual Time 7:20 AM EDT 6:54 PM EDT
Civil Twilight 6:52 AM EDT 7:22 PM EDT
Nautical Twilight 6:20 AM EDT 7:54 PM EDT
Astronomical Twilight 5:48 AM EDT 8:26 PM EDT
Moon 2:48 PM EDT (10/5) No Moon Set
Length of Visible Light 12h 29m
Length of Day
11h 34m
Waxing Crescent, 50% of the Moon is Illuminated
Oct 5
Waxing Crescent
Oct 5
First Quarter
Oct 13
Full
Oct 21
Last Quarter
Oct 27
New

Hourly Weather History & Observations

Time (EDT) Temp. Windchill Dew Point Humidity Pressure Visibility Wind Dir Wind Speed Gust Speed Precip Events Conditions
12:56 AM 41.0 °F 37.1 °F 37.9 °F 89% 30.40 in 10.0 mi East 5.8 mph - N/A   Clear
1:56 AM 39.9 °F 36.7 °F 37.0 °F 89% 30.40 in 10.0 mi East 4.6 mph - N/A   Clear
2:56 AM 39.0 °F 32.8 °F 36.0 °F 89% 30.39 in 10.0 mi East 9.2 mph - N/A   Clear
3:56 AM 37.9 °F 32.1 °F 35.1 °F 89% 30.37 in 10.0 mi East 8.1 mph - N/A   Clear
4:56 AM 37.9 °F 33.5 °F 35.1 °F 89% 30.37 in 10.0 mi East 5.8 mph - N/A   Clear
5:56 AM 37.0 °F 31.0 °F 35.1 °F 93% 30.38 in 10.0 mi East 8.1 mph - N/A   Clear
6:56 AM 37.0 °F 30.4 °F 35.1 °F 93% 30.37 in 10.0 mi East 9.2 mph - N/A   Clear
7:56 AM 37.9 °F 30.5 °F 35.1 °F 89% 30.36 in 10.0 mi ESE 11.5 mph - N/A   Clear
8:56 AM 41.0 °F 33.5 °F 36.0 °F 82% 30.35 in 10.0 mi ESE 13.8 mph 21.9 mph N/A   Clear
9:56 AM 45.0 °F 38.2 °F 37.0 °F 74% 30.35 in 10.0 mi SE 15.0 mph - N/A   Clear
10:56 AM 48.0 °F - 37.9 °F 68% 30.34 in 10.0 mi ESE 12.7 mph 21.9 mph N/A   Clear
11:56 AM 51.1 °F - 39.0 °F 63% 30.32 in 10.0 mi ESE 12.7 mph 20.7 mph N/A   Clear
12:56 PM 55.0 °F - 41.0 °F 59% 30.30 in 10.0 mi SE 12.7 mph 23.0 mph N/A   Clear
1:56 PM 57.0 °F - 42.1 °F 57% 30.26 in 10.0 mi ESE 16.1 mph 20.7 mph N/A   Clear
2:56 PM 59.0 °F - 44.1 °F 58% 30.22 in 10.0 mi ESE 13.8 mph - N/A   Clear
3:56 PM 61.0 °F - 45.0 °F 56% 30.19 in 10.0 mi SE 15.0 mph 19.6 mph N/A   Clear
4:56 PM 60.1 °F - 45.0 °F 57% 30.19 in 10.0 mi ESE 16.1 mph 20.7 mph N/A   Clear
5:56 PM 57.9 °F - 45.0 °F 62% 30.18 in 10.0 mi ESE 11.5 mph - N/A   Clear
6:56 PM 55.0 °F - 45.0 °F 69% 30.17 in 10.0 mi SE 13.8 mph - N/A   Clear
7:56 PM 53.1 °F - 44.1 °F 71% 30.16 in 10.0 mi SE 15.0 mph 23.0 mph N/A   Clear
8:56 PM 52.0 °F - 44.1 °F 74% 30.15 in 10.0 mi SE 16.1 mph - N/A   Clear
9:56 PM 51.1 °F - 44.1 °F 77% 30.15 in 10.0 mi SE 12.7 mph - N/A   Clear
10:56 PM 50.0 °F - 44.1 °F 80% 30.14 in 10.0 mi SE 13.8 mph 20.7 mph N/A   Clear
11:56 PM 50.0 °F - 44.1 °F 80% 30.14 in 10.0 mi SE 9.2 mph - N/A   Clear